• In Belarus
  • List of Countries
  • For 7 days
  • Water Temperature
  • Satellite Maps
  • Weather Map
  • Weather Widgets
  • user-avatar
    Login

    Hourly Weather Snosnoe

    Today, 26 March, Tuesday

    Time Temperature Precipitation Wind Pressure Humidity
    00:00 -2°C° 0 mm 2 mps 731 mmHg 82%
    01:00 -2°C° 0 mm 2 mps 730 mmHg 83%
    02:00 -2°C° 0 mm 2 mps 730 mmHg 85%
    03:00 -3°C° 0 mm 2 mps 730 mmHg 86%
    04:00 -3°C° 0 mm 2 mps 730 mmHg 86%
    05:00 -3°C° 0 mm 2 mps 729 mmHg 87%
    06:00 -2°C° 0 mm 2 mps 730 mmHg 86%
    07:00 -1°C° 0 mm 3 mps 730 mmHg 85%
    08:00 -1°C° 0 mm 3 mps 730 mmHg 85%
    09:00 0°C° 0.1 mm 3 mps 730 mmHg 83%
    10:00 0°C° 0.1 mm 4 mps 730 mmHg 82%
    11:00 0°C° 0.1 mm 4 mps 730 mmHg 81%
    12:00 0°C° 0.2 mm 4 mps 730 mmHg 77%
    13:00 0°C° 0.2 mm 4 mps 730 mmHg 74%
    14:00 0°C° 0.2 mm 5 mps 730 mmHg 70%
    15:00 0°C° 0.1 mm 4 mps 731 mmHg 69%
    16:00 -1°C° 0.1 mm 4 mps 731 mmHg 69%
    17:00 0°C° 0.1 mm 3 mps 731 mmHg 68%
    18:00 -1°C° 0 mm 3 mps 732 mmHg 72%
    19:00 -2°C° 0 mm 2 mps 732 mmHg 77%
    20:00 -3°C° 0 mm 2 mps 733 mmHg 81%
    21:00 -4°C° 0 mm 2 mps 733 mmHg 81%
    22:00 -4°C° 0 mm 2 mps 733 mmHg 81%
    23:00 -4°C° 0 mm 2 mps 734 mmHg 82%

    Tomorrow, 27 March, Wednesday

    Time Temperature Precipitation Wind Pressure Humidity
    00:00 -4°C° 0 mm 2 mps 734 mmHg 81%
    01:00 -4°C° 0 mm 2 mps 734 mmHg 81%
    02:00 -4°C° 0 mm 2 mps 735 mmHg 80%
    03:00 -5°C° 0 mm 2 mps 735 mmHg 80%
    04:00 -6°C° 0 mm 3 mps 735 mmHg 79%
    05:00 -6°C° 0 mm 3 mps 735 mmHg 78%
    06:00 -5°C° 0 mm 3 mps 735 mmHg 78%
    07:00 -5°C° 0 mm 3 mps 736 mmHg 77%
    08:00 -4°C° 0 mm 3 mps 736 mmHg 76%
    09:00 -3°C° 0 mm 4 mps 737 mmHg 72%
    10:00 -2°C° 0 mm 4 mps 737 mmHg 69%
    11:00 -1°C° 0 mm 4 mps 738 mmHg 65%
    12:00 -1°C° 0 mm 4 mps 738 mmHg 63%
    13:00 -1°C° 0 mm 4 mps 739 mmHg 61%
    14:00 -1°C° 0 mm 4 mps 739 mmHg 59%
    15:00 -1°C° 0 mm 4 mps 739 mmHg 60%
    16:00 0°C° 0 mm 3 mps 740 mmHg 60%
    17:00 -1°C° 0 mm 3 mps 740 mmHg 61%
    18:00 -2°C° 0 mm 3 mps 741 mmHg 65%
    19:00 -3°C° 0 mm 2 mps 741 mmHg 70%
    20:00 -4°C° 0 mm 2 mps 742 mmHg 74%
    21:00 -4°C° 0 mm 2 mps 742 mmHg 74%
    22:00 -4°C° 0 mm 2 mps 742 mmHg 75%
    23:00 -5°C° 0 mm 3 mps 743 mmHg 75%

    Day after tomorrow, 28 March, Thursday

    Time Temperature Precipitation Wind Pressure Humidity
    00:00 -5°C° 0 mm 3 mps 743 mmHg 76%
    01:00 -5°C° 0 mm 2 mps 743 mmHg 77%
    02:00 -5°C° 0 mm 2 mps 743 mmHg 78%
    03:00 -5°C° 0 mm 2 mps 744 mmHg 79%
    04:00 -5°C° 0 mm 2 mps 744 mmHg 79%
    05:00 -5°C° 0 mm 2 mps 744 mmHg 80%
    06:00 -4°C° 0 mm 2 mps 744 mmHg 75%
    07:00 -5°C° 0 mm 3 mps 745 mmHg 70%
    08:00 -4°C° 0 mm 3 mps 745 mmHg 66%
    09:00 -2°C° 0 mm 3 mps 745 mmHg 60%
    10:00 -1°C° 0 mm 3 mps 745 mmHg 54%
    11:00 0°C° 0 mm 3 mps 745 mmHg 48%
    12:00 +1°C° 0 mm 3 mps 744 mmHg 48%
    13:00 +2°C° 0 mm 3 mps 744 mmHg 48%
    14:00 +2°C° 0 mm 3 mps 744 mmHg 48%
    15:00 +2°C° 0 mm 3 mps 744 mmHg 53%
    16:00 +2°C° 0 mm 2 mps 743 mmHg 57%
    17:00 +2°C° 0 mm 2 mps 743 mmHg 61%
    18:00 +2°C° 0 mm 2 mps 743 mmHg 69%
    19:00 0°C° 0 mm 3 mps 743 mmHg 76%
    20:00 -1°C° 0 mm 3 mps 743 mmHg 83%
    21:00 -1°C° 0 mm 3 mps 743 mmHg 86%
    22:00 -1°C° 0 mm 3 mps 742 mmHg 88%
    23:00 -1°C° 0 mm 3 mps 742 mmHg 91%

    29 March, Friday

    Time Temperature Precipitation Wind Pressure Humidity
    00:00 -1°C° 0.2 mm 3 mps 741 mmHg 89%
    01:00 -1°C° 0.2 mm 4 mps 741 mmHg 88%
    02:00 -1°C° 0.2 mm 4 mps 740 mmHg 86%
    03:00 -1°C° 0.3 mm 4 mps 740 mmHg 87%
    04:00 -1°C° 0.3 mm 5 mps 740 mmHg 88%
    05:00 0°C° 0.3 mm 5 mps 739 mmHg 89%
    06:00 0°C° 0 mm 5 mps 739 mmHg 88%
    07:00 +1°C° 0 mm 5 mps 739 mmHg 87%
    08:00 +1°C° 0 mm 5 mps 739 mmHg 86%
    09:00 +1°C° 0 mm 5 mps 739 mmHg 85%
    10:00 +2°C° 0 mm 6 mps 739 mmHg 84%
    11:00 +2°C° 0 mm 6 mps 739 mmHg 83%
    12:00 +3°C° 0 mm 6 mps 739 mmHg 79%
    13:00 +5°C° 0 mm 6 mps 739 mmHg 75%
    14:00 +7°C° 0 mm 6 mps 739 mmHg 71%
    15:00 +6°C° 0 mm 5 mps 739 mmHg 75%
    16:00 +6°C° 0 mm 4 mps 739 mmHg 79%
    17:00 +5°C° 0 mm 3 mps 738 mmHg 83%
    18:00 +4°C° 0 mm 3 mps 738 mmHg 85%
    19:00 +3°C° 0 mm 3 mps 738 mmHg 86%
    20:00 +2°C° 0 mm 3 mps 738 mmHg 87%
    21:00 +2°C° 0 mm 3 mps 738 mmHg 87%
    22:00 +3°C° 0 mm 3 mps 738 mmHg 87%
    23:00 +3°C° 0 mm 4 mps 737 mmHg 87%

    30 March, Saturday

    Time Temperature Precipitation Wind Pressure Humidity
    00:00 +3°C° 0 mm 4 mps 737 mmHg 89%
    01:00 +3°C° 0 mm 4 mps 737 mmHg 90%
    02:00 +3°C° 0 mm 4 mps 736 mmHg 92%
    03:00 +3°C° 0 mm 4 mps 736 mmHg 93%
    04:00 +3°C° 0 mm 4 mps 735 mmHg 93%
    05:00 +2°C° 0 mm 5 mps 735 mmHg 94%
    06:00 +3°C° 0 mm 5 mps 735 mmHg 91%
    07:00 +3°C° 0 mm 6 mps 734 mmHg 89%
    08:00 +3°C° 0 mm 6 mps 734 mmHg 86%
    09:00 +4°C° 0 mm 6 mps 734 mmHg 83%
    10:00 +4°C° 0 mm 7 mps 734 mmHg 80%
    11:00 +5°C° 0 mm 7 mps 734 mmHg 78%
    12:00 +5°C° 0 mm 7 mps 733 mmHg 77%
    13:00 +5°C° 0 mm 7 mps 733 mmHg 77%
    14:00 +5°C° 0 mm 7 mps 733 mmHg 76%
    15:00 +5°C° 0 mm 6 mps 733 mmHg 76%
    16:00 +5°C° 0 mm 6 mps 734 mmHg 77%
    17:00 +6°C° 0 mm 5 mps 734 mmHg 77%
    18:00 +5°C° 0 mm 5 mps 734 mmHg 78%
    19:00 +5°C° 0 mm 4 mps 734 mmHg 79%
    20:00 +4°C° 0 mm 4 mps 734 mmHg 80%
    21:00 +4°C° 0 mm 4 mps 734 mmHg 82%
    22:00 +4°C° 0 mm 4 mps 734 mmHg 84%
    23:00 +4°C° 0 mm 3 mps 734 mmHg 85%

    31 March, Sunday

    Time Temperature Precipitation Wind Pressure Humidity
    00:00 +4°C° 0 mm 4 mps 733 mmHg 84%
    01:00 +4°C° 0 mm 4 mps 733 mmHg 83%
    02:00 +3°C° 0 mm 4 mps 732 mmHg 81%
    03:00 +3°C° 0.1 mm 4 mps 732 mmHg 84%
    04:00 +3°C° 0.1 mm 4 mps 732 mmHg 87%
    05:00 +3°C° 0.1 mm 4 mps 731 mmHg 90%
    06:00 +3°C° 0.1 mm 5 mps 731 mmHg 87%
    07:00 +3°C° 0.1 mm 6 mps 731 mmHg 83%
    08:00 +3°C° 0.1 mm 6 mps 731 mmHg 80%
    09:00 +4°C° 0.2 mm 7 mps 731 mmHg 74%
    10:00 +4°C° 0.2 mm 7 mps 731 mmHg 67%
    11:00 +4°C° 0.2 mm 7 mps 731 mmHg 61%
    12:00 +4°C° 0.2 mm 7 mps 731 mmHg 59%
    13:00 +4°C° 0.2 mm 7 mps 732 mmHg 57%
    14:00 +3°C° 0.2 mm 7 mps 732 mmHg 55%
    15:00 +3°C° 0.1 mm 6 mps 733 mmHg 54%
    16:00 +2°C° 0.1 mm 5 mps 733 mmHg 52%
    17:00 +1°C° 0.1 mm 5 mps 734 mmHg 50%
    18:00 0°C° 0 mm 4 mps 734 mmHg 55%
    19:00 0°C° 0 mm 3 mps 735 mmHg 59%
    20:00 -1°C° 0 mm 3 mps 736 mmHg 64%
    21:00 -1°C° 0 mm 3 mps 736 mmHg 66%
    22:00 -1°C° 0 mm 3 mps 736 mmHg 69%
    23:00 -2°C° 0 mm 3 mps 736 mmHg 71%
    Show more